Tracking 19832 objects as of 26-Aug-2019
HD Live streaming from Space Station
objects crossing your sky now

SL-12 DEB

Track SL-12 DEB now!
10-day predictions


NORAD ID: 27805
Int'l Code: 1992-047L
Perigee: 429.1 km
Apogee: 12,357.6 km
Inclination: 65.2 °
Period: 239.2 minutes
Semi major axis: 12764 km
RCS: 0.048 m2 (small)
Launch date: July 30, 1992
Source: Commonwealth of Independent States (former USSR) (CIS)
Launch site: TYURATAM MISSILE AND SPACE COMPLEX (TTMTR)

Note: This is SATELLITE DEBRIS
aabbcc
Your satellite tracking list
Your tracking list is empty




NASA's NSSDC Master Catalog

Two Line Element Set (TLE):
1 27805U 92047L   19237.55185214 +.00000532 +00000-0 +38493-3 0  9997
2 27805 065.2349 348.0317 4672567 288.4784 027.4384 06.02012495367358
Source of the keplerian elements: AFSPC